QPF
0.00 0.00 0.00 0.00 0.00 0.03 0.02 0.03 0.05 0.06 0.03 0.02 0.03 0.01 0.00 0.00 0.00 0.00 0.00 0.00 0.00 0.01 0.14 0.18 0.04 0.00 0.00 0.00 0.01 0.01 0.00 0.01 0.01 0.00 0.00 0.00 0.00 0.00 0.00 0.00 0.00 0.00 0.00
0.00 0.00 0.00 0.00 0.00 0.05 0.12 0.20 0.25 0.12 0.09 0.05 0.04 0.03 0.01 0.00 0.00 0.00 0.00 0.00 0.00 0.00 0.03 0.21 0.13 0.01 0.00 0.00 0.02 0.02 0.01 0.01 0.00 0.00 0.00 0.00 0.00 0.00 0.00 0.00 0.00 0.00 0.00
0.00 0.00 0.00 0.00 0.00 0.00 0.07 0.22 0.53 0.71 0.50 0.25 0.10 0.06 0.03 0.01 0.00 0.00 0.00 0.00 0.00 0.00 0.00 0.09 0.16 0.04 0.00 0.00 0.01 0.01 0.01 0.00 0.00 0.00 0.00 0.00 0.00 0.00 0.00 0.00 0.00 0.00 0.00
0.00 0.00 0.00 0.00 0.00 0.00 0.00 0.04 0.23 0.45 0.63 0.58 0.30 0.11 0.05 0.03 0.00 0.00 0.00 0.00 0.00 0.00 0.00 0.03 0.20 0.08 0.00 0.00 0.01 0.01 0.01 0.00 0.01 0.01 0.00 0.00 0.00 0.00 0.00 0.00 0.00 0.00 0.00
0.00 0.00 0.00 0.00 0.00 0.00 0.00 0.02 0.09 0.20 0.24 0.17 0.20 0.17 0.08 0.03 0.00 0.00 0.00 0.00 0.00 0.00 0.00 0.01 0.08 0.14 0.02 0.00 0.03 0.02 0.03 0.00 0.00 0.00 0.00 0.00 0.00 0.00 0.00 0.00 0.00 0.00 0.00
0.00 0.00 0.00 0.00 0.00 0.00 0.00 0.00 0.02 0.10 0.44 0.62 0.38 0.22 0.14 0.03 0.00 0.00 0.00 0.00 0.00 0.00 0.00 0.00 0.03 0.08 0.03 0.00 0.03 0.05 0.05 0.01 0.00 0.00 0.00 0.00 0.00 0.00 0.00 0.00 0.00 0.00 0.00
0.00 0.00 0.00 0.00 0.00 0.00 0.00 0.00 0.00 0.03 0.16 0.38 0.72 0.65 0.43 0.33 0.09 0.00 0.00 0.00 0.00 0.00 0.00 0.00 0.01 0.02 0.01 0.00 0.01 0.07 0.08 0.02 0.00 0.00 0.00 0.00 0.00 0.00 0.00 0.00 0.00 0.00 0.00
0.00 0.00 0.00 0.00 0.00 0.00 0.00 0.00 0.01 0.01 0.05 0.25 0.39 0.53 0.66 0.48 0.36 0.09 0.00 0.00 0.00 0.00 0.00 0.01 0.01 0.01 0.02 0.01 0.00 0.02 0.04 0.02 0.00 0.00 0.00 0.00 0.00 0.00 0.00 0.00 0.00 0.00 0.00
0.00 0.00 0.00 0.00 0.00 0.00 0.00 0.00 0.01 0.04 0.02 0.04 0.26 0.37 0.49 0.52 0.33 0.19 0.06 0.00 0.00 0.00 0.00 0.01 0.02 0.02 0.01 0.01 0.01 0.01 0.01 0.01 0.01 0.01 0.00 0.00 0.00 0.00 0.00 0.00 0.00 0.00 0.01
0.00 0.00 0.00 0.00 0.00 0.00 0.00 0.00 0.00 0.02 0.06 0.02 0.03 0.14 0.35 0.36 0.27 0.25 0.16 0.08 0.01 0.00 0.00 0.00 0.02 0.03 0.02 0.01 0.02 0.00 0.00 0.00 0.03 0.04 0.01 0.01 0.00 0.00 0.00 0.00 0.00 0.00 0.00
0.00 0.00 0.00 0.00 0.00 0.00 0.00 0.00 0.00 0.00 0.03 0.05 0.04 0.05 0.19 0.44 0.43 0.35 0.24 0.15 0.08 0.01 0.00 0.00 0.00 0.02 0.02 0.01 0.01 0.01 0.00 0.00 0.03 0.07 0.07 0.03 0.00 0.00 0.00 0.00 0.00 0.00 0.00
0.00 0.00 0.00 0.00 0.00 0.00 0.00 0.00 0.00 0.00 0.00 0.02 0.02 0.05 0.10 0.28 0.36 0.47 0.39 0.24 0.11 0.02 0.00 0.00 0.00 0.01 0.04 0.04 0.02 0.01 0.02 0.00 0.01 0.04 0.06 0.09 0.03 0.00 0.00 0.00 0.00 0.00 0.00
0.00 0.00 0.00 0.00 0.00 0.00 0.00 0.00 0.00 0.00 0.00 0.00 0.00 0.01 0.07 0.11 0.25 0.24 0.33 0.29 0.27 0.07 0.01 0.00 0.00 0.00 0.02 0.05 0.05 0.05 0.03 0.02 0.00 0.01 0.01 0.04 0.06 0.01 0.00 0.00 0.00 0.00 0.00
0.00 0.00 0.00 0.00 0.00 0.00 0.00 0.00 0.00 0.00 0.00 0.00 0.00 0.01 0.02 0.05 0.14 0.31 0.30 0.35 0.31 0.18 0.04 0.00 0.00 0.00 0.00 0.03 0.05 0.08 0.04 0.01 0.00 0.00 0.00 0.01 0.04 0.01 0.00 0.01 0.01 0.01 0.00
0.00 0.00 0.00 0.00 0.00 0.00 0.00 0.00 0.00 0.00 0.00 0.00 0.00 0.00 0.01 0.02 0.10 0.23 0.35 0.34 0.33 0.18 0.05 0.00 0.00 0.00 0.00 0.00 0.02 0.02 0.07 0.00 0.00 0.00 0.00 0.00 0.03 0.02 0.00 0.00 0.01 0.01 0.01
0.00 0.00 0.00 0.00 0.00 0.00 0.00 0.00 0.00 0.00 0.00 0.00 0.00 0.00 0.01 0.01 0.03 0.14 0.37 0.53 0.39 0.24 0.13 0.03 0.00 0.00 0.00 0.00 0.00 0.00 0.00 0.00 0.00 0.00 0.00 0.00 0.01 0.03 0.00 0.00 0.00 0.00 0.00
0.00 0.00 0.00 0.00 0.00 0.00 0.00 0.00 0.00 0.00 0.00 0.00 0.00 0.00 0.00 0.01 0.02 0.03 0.16 0.41 0.58 0.43 0.25 0.09 0.03 0.02 0.01 0.00 0.00 0.00 0.00 0.00 0.00 0.00 0.00 0.00 0.00 0.01 0.00 0.00 0.00 0.01 0.02
0.00 0.00 0.00 0.00 0.00 0.00 0.00 0.00 0.00 0.00 0.00 0.00 0.00 0.00 0.00 0.00 0.02 0.05 0.11 0.21 0.29 0.33 0.31 0.18 0.08 0.06 0.02 0.00 0.00 0.00 0.00 0.00 0.00 0.00 0.00 0.00 0.00 0.00 0.00 0.00 0.00 0.00 0.00
0.00 0.00 0.00 0.00 0.00 0.00 0.00 0.00 0.00 0.00 0.00 0.00 0.00 0.00 0.00 0.00 0.02 0.04 0.10 0.21 0.35 0.32 0.27 0.19 0.09 0.09 0.06 0.02 0.00 0.00 0.00 0.00 0.00 0.00 0.00 0.00 0.00 0.00 0.00 0.00 0.00 0.00 0.00
0.00 0.00 0.00 0.00 0.00 0.00 0.00 0.00 0.00 0.00 0.00 0.00 0.00 0.00 0.00 0.00 0.01 0.03 0.06 0.14 0.29 0.47 0.43 0.32 0.11 0.06 0.04 0.02 0.02 0.00 0.00 0.00 0.00 0.00 0.00 0.00 0.00 0.00 0.00 0.00 0.00 0.00 0.00
0.00 0.00 0.00 0.00 0.00 0.00 0.00 0.00 0.00 0.00 0.00 0.00 0.00 0.00 0.00 0.00 0.00 0.00 0.03 0.06 0.14 0.30 0.54 0.58 0.31 0.09 0.05 0.03 0.01 0.00 0.00 0.00 0.00 0.00 0.00 0.00 0.00 0.00 0.00 0.00 0.00 0.00 0.00
0.00 0.00 0.00 0.00 0.00 0.00 0.00 0.00 0.00 0.00 0.00 0.00 0.00 0.00 0.00 0.00 0.00 0.00 0.02 0.04 0.09 0.14 0.26 0.57 0.58 0.21 0.11 0.05 0.02 0.00 0.00 0.00 0.00 0.00 0.00 0.00 0.00 0.00 0.00 0.00 0.00 0.00 0.00
0.00 0.00 0.00 0.00 0.00 0.00 0.00 0.00 0.00 0.00 0.01 0.01 0.00 0.00 0.00 0.00 0.00 0.00 0.00 0.02 0.04 0.10 0.14 0.21 0.38 0.26 0.12 0.06 0.03 0.01 0.00 0.00 0.00 0.00 0.00 0.00 0.00 0.00 0.00 0.00 0.00 0.00 0.00
0.00 0.00 0.00 0.00 0.00 0.00 0.00 0.00 0.00 0.00 0.01 0.00 0.00 0.00 0.00 0.00 0.00 0.00 0.00 0.01 0.03 0.03 0.07 0.11 0.12 0.09 0.10 0.03 0.02 0.01 0.01 0.01 0.00 0.00 0.00 0.00 0.00 0.00 0.00 0.00 0.00 0.00 0.00
0.01 0.00 0.00 0.00 0.00 0.00 0.00 0.00 0.00 0.01 0.01 0.00 0.00 0.00 0.00 0.00 0.00 0.00 0.00 0.00 0.02 0.07 0.04 0.06 0.10 0.14 0.10 0.10 0.07 0.10 0.08 0.07 0.05 0.00 0.00 0.00 0.00 0.00 0.00 0.00 0.00 0.00 0.00
0.01 0.00 0.00 0.00 0.00 0.00 0.00 0.00 0.00 0.02 0.03 0.00 0.00 0.00 0.00 0.01 0.01 0.01 0.00 0.00 0.00 0.05 0.06 0.04 0.05 0.15 0.16 0.07 0.11 0.16 0.17 0.07 0.02 0.01 0.00 0.00 0.00 0.00 0.00 0.00 0.00 0.00 0.00
MSLP
1022.12 1021.10 1020.44 1019.59 1018.81 1018.02 1017.32 1016.59 1015.70 1014.68 1013.61 1013.51 1013.91 1014.16 1014.34 1014.55 1014.88 1015.11 1015.10 1015.09 1015.17 1015.07 1015.33 1015.86 1016.29 1016.82 1017.33 1017.72 1017.96 1018.41 1018.74 1019.02 1019.41 1019.91 1020.33 1020.74 1020.96 1021.15 1021.47 1021.77 1022.11 1022.43 1022.71
1022.73 1021.91 1020.98 1019.89 1019.03 1018.33 1017.74 1016.93 1015.89 1014.91 1013.14 1012.79 1013.19 1013.55 1013.85 1014.06 1014.47 1014.62 1014.81 1014.83 1014.89 1014.72 1014.95 1015.41 1015.72 1016.28 1016.87 1017.34 1017.75 1018.29 1018.74 1018.99 1019.29 1019.70 1020.10 1020.55 1020.91 1021.17 1021.44 1021.76 1022.04 1022.37 1022.73
1023.04 1022.50 1021.70 1020.59 1019.58 1018.70 1017.74 1016.73 1015.65 1014.69 1012.59 1011.97 1012.51 1012.95 1013.23 1013.47 1013.92 1014.07 1014.27 1014.50 1014.57 1014.56 1014.70 1014.99 1015.56 1015.88 1016.36 1016.83 1017.32 1017.96 1018.59 1018.85 1019.18 1019.56 1019.96 1020.37 1020.76 1021.13 1021.46 1021.75 1022.01 1022.34 1022.66
1023.27 1022.75 1022.12 1021.13 1020.22 1019.24 1018.12 1016.97 1016.08 1014.96 1013.73 1011.63 1011.42 1012.35 1012.89 1012.95 1013.15 1013.36 1013.53 1013.96 1014.23 1014.42 1014.42 1014.54 1015.01 1015.37 1015.88 1016.35 1016.83 1017.52 1018.21 1018.67 1018.89 1019.30 1019.71 1020.22 1020.64 1021.08 1021.40 1021.70 1022.00 1022.33 1022.58
1023.55 1022.87 1022.39 1021.59 1020.72 1019.53 1018.52 1017.44 1016.30 1015.84 1014.47 1012.08 1011.78 1011.70 1012.31 1012.53 1012.36 1012.54 1012.94 1013.26 1013.72 1014.06 1014.09 1014.31 1014.65 1015.24 1015.53 1015.91 1016.32 1017.03 1017.69 1018.31 1018.76 1019.07 1019.54 1020.07 1020.52 1020.90 1021.26 1021.59 1021.96 1022.31 1022.61
1023.79 1023.01 1022.37 1021.90 1021.06 1020.03 1018.92 1018.00 1016.82 1015.66 1014.88 1012.63 1010.90 1011.30 1011.57 1011.71 1011.92 1012.06 1012.30 1012.46 1013.04 1013.67 1013.64 1013.97 1014.37 1014.99 1015.22 1015.59 1015.93 1016.48 1017.09 1017.72 1018.44 1018.93 1019.33 1019.84 1020.29 1020.67 1020.99 1021.36 1021.75 1022.15 1022.53
1023.86 1023.13 1022.47 1022.08 1021.32 1020.43 1019.56 1018.64 1017.43 1016.19 1014.16 1012.95 1011.53 1010.47 1010.53 1011.32 1011.63 1011.67 1011.72 1012.05 1012.65 1013.00 1013.19 1013.62 1013.88 1014.45 1015.11 1015.36 1015.58 1016.06 1016.62 1017.20 1017.81 1018.50 1018.99 1019.41 1019.94 1020.38 1020.70 1021.11 1021.54 1021.92 1022.37
1023.85 1023.07 1022.64 1022.23 1021.59 1020.53 1019.88 1018.89 1018.00 1016.79 1015.38 1014.44 1013.22 1011.06 1010.64 1010.64 1010.86 1011.37 1011.48 1011.55 1012.03 1012.17 1012.78 1013.05 1013.41 1013.80 1014.30 1014.85 1015.23 1015.69 1016.16 1016.67 1017.17 1017.91 1018.54 1018.93 1019.48 1019.97 1020.36 1020.83 1021.35 1021.73 1022.23
1023.83 1023.18 1022.64 1022.17 1021.73 1020.97 1020.15 1019.22 1018.42 1017.59 1016.32 1014.66 1014.49 1013.62 1010.55 1009.59 1009.65 1010.53 1010.91 1011.36 1011.41 1011.79 1012.18 1012.16 1012.69 1013.19 1013.63 1014.02 1014.75 1015.24 1015.64 1016.24 1016.68 1017.19 1017.91 1018.59 1019.08 1019.51 1019.95 1020.44 1020.96 1021.47 1022.03
1023.75 1023.21 1022.62 1021.99 1021.63 1021.10 1020.17 1019.49 1018.83 1018.02 1017.04 1015.56 1014.24 1012.66 1011.49 1009.69 1008.82 1010.00 1010.45 1010.44 1011.14 1011.13 1011.52 1011.86 1012.03 1012.47 1012.89 1013.33 1013.95 1014.54 1015.17 1015.69 1016.22 1016.71 1017.31 1018.02 1018.55 1018.99 1019.49 1020.03 1020.54 1021.09 1021.71
1023.60 1023.09 1022.46 1021.83 1021.44 1020.97 1019.97 1019.57 1018.99 1018.31 1017.35 1016.40 1015.26 1014.19 1012.19 1010.81 1008.62 1008.28 1008.76 1009.74 1010.63 1010.76 1010.79 1011.22 1011.39 1011.76 1012.34 1012.70 1013.30 1013.73 1014.45 1015.08 1015.55 1016.06 1016.58 1017.23 1017.99 1018.51 1018.95 1019.49 1020.05 1020.56 1021.11
1023.18 1022.75 1022.20 1021.69 1021.22 1020.55 1020.01 1019.34 1018.82 1018.08 1017.22 1016.24 1015.54 1014.26 1013.64 1012.43 1010.39 1009.18 1008.66 1008.72 1008.96 1010.08 1010.51 1010.61 1010.77 1011.14 1011.57 1012.19 1012.63 1013.09 1013.60 1014.39 1015.04 1015.47 1015.90 1016.38 1017.14 1017.86 1018.33 1018.87 1019.51 1020.03 1020.64
1022.60 1022.21 1021.85 1021.38 1020.78 1020.16 1019.73 1018.96 1018.28 1017.74 1017.09 1016.17 1015.26 1014.64 1014.06 1012.75 1011.75 1011.24 1009.31 1008.08 1008.32 1009.39 1009.94 1010.01 1010.22 1010.58 1010.98 1011.46 1012.01 1012.59 1013.09 1013.68 1014.36 1014.79 1015.33 1015.77 1016.45 1017.12 1017.80 1018.29 1019.01 1019.47 1020.11
1022.04 1021.63 1021.23 1020.76 1020.28 1019.75 1019.20 1018.59 1017.93 1017.51 1016.72 1015.92 1014.98 1014.21 1013.65 1012.66 1011.89 1011.21 1009.88 1008.78 1008.03 1008.74 1009.10 1009.07 1009.72 1010.10 1010.25 1010.88 1011.19 1011.88 1012.21 1012.98 1013.57 1014.26 1014.52 1015.07 1015.80 1016.54 1017.12 1017.70 1018.29 1018.85 1019.45
1021.21 1020.73 1020.51 1020.05 1019.60 1019.16 1018.64 1018.11 1017.46 1016.98 1016.42 1015.63 1014.63 1013.77 1013.03 1012.43 1011.48 1011.30 1010.04 1009.23 1007.37 1007.35 1007.84 1008.44 1008.78 1009.28 1009.78 1010.10 1010.54 1011.02 1010.84 1012.04 1012.33 1013.57 1013.95 1014.49 1015.21 1015.99 1016.47 1017.05 1017.64 1018.27 1018.86
1020.43 1020.08 1019.83 1019.41 1018.83 1018.40 1018.00 1017.59 1016.97 1016.37 1015.91 1015.32 1014.41 1013.53 1013.04 1012.41 1012.12 1011.16 1010.20 1009.81 1007.99 1005.78 1006.38 1006.78 1007.34 1007.78 1008.72 1009.46 1009.71 1010.42 1011.07 1011.42 1012.07 1012.58 1013.23 1014.09 1014.69 1015.26 1015.88 1016.29 1017.02 1017.63 1018.31
1019.72 1019.22 1018.89 1018.54 1018.13 1017.66 1017.33 1016.87 1016.38 1015.79 1015.34 1014.66 1014.20 1013.60 1012.69 1012.16 1011.23 1011.18 1010.87 1009.96 1008.31 1005.99 1005.60 1006.42 1006.54 1007.45 1008.22 1008.64 1009.22 1009.69 1010.47 1011.01 1011.55 1012.04 1012.68 1013.44 1013.97 1014.55 1015.23 1015.75 1016.36 1017.01 1017.61
1018.91 1018.39 1017.94 1017.63 1017.28 1016.93 1016.53 1016.03 1015.47 1015.21 1014.69 1014.18 1013.66 1013.13 1012.54 1012.31 1011.75 1011.25 1010.56 1009.28 1007.90 1007.27 1006.33 1005.55 1006.07 1007.07 1007.20 1007.71 1008.45 1009.15 1009.83 1010.09 1010.57 1011.34 1012.04 1012.74 1013.31 1013.82 1014.47 1015.11 1015.73 1016.32 1016.91
1017.98 1017.50 1017.07 1016.67 1016.36 1016.03 1015.68 1015.19 1014.69 1014.37 1013.95 1013.44 1013.06 1012.52 1012.02 1011.45 1010.52 1009.86 1009.76 1007.85 1008.30 1007.21 1005.94 1005.66 1005.19 1006.11 1006.55 1006.88 1007.92 1008.68 1009.19 1009.85 1010.13 1010.59 1011.38 1012.10 1012.72 1013.38 1013.81 1014.43 1015.05 1015.61 1016.16
1017.01 1016.51 1016.13 1015.75 1015.40 1015.01 1014.68 1014.35 1013.87 1013.30 1012.93 1012.54 1012.15 1011.78 1011.40 1011.03 1010.42 1009.73 1009.08 1009.06 1008.36 1006.93 1006.47 1006.46 1004.60 1004.94 1005.11 1005.93 1006.43 1007.76 1008.80 1009.52 1009.89 1010.45 1010.83 1011.43 1012.11 1012.72 1013.11 1013.85 1014.45 1014.80 1015.41
1015.94 1015.47 1015.12 1014.75 1014.39 1014.05 1013.64 1013.29 1012.89 1012.29 1011.91 1011.51 1011.20 1011.00 1010.63 1010.25 1009.96 1009.60 1009.20 1008.90 1008.39 1007.82 1007.00 1006.48 1004.32 1003.66 1004.22 1005.07 1005.57 1006.52 1007.09 1008.43 1009.16 1009.96 1010.59 1011.09 1011.67 1012.28 1012.78 1013.09 1013.61 1014.12 1014.76
1014.79 1014.47 1014.11 1013.78 1013.39 1012.96 1012.52 1011.89 1011.44 1011.20 1010.88 1010.52 1010.16 1009.90 1009.59 1009.32 1008.98 1008.70 1008.48 1008.42 1007.50 1007.32 1006.55 1006.26 1005.29 1002.69 1002.91 1003.65 1004.49 1005.28 1006.36 1007.55 1008.65 1009.23 1010.04 1010.69 1010.93 1011.56 1012.09 1012.31 1012.77 1013.31 1014.15
1013.57 1013.25 1012.99 1012.75 1012.41 1011.93 1011.40 1010.86 1010.43 1010.13 1009.85 1009.46 1009.23 1008.96 1008.50 1008.10 1007.95 1007.55 1007.21 1007.01 1006.64 1006.51 1005.87 1006.19 1005.54 1004.01 1002.95 1002.29 1003.35 1004.63 1005.29 1006.10 1007.00 1007.86 1009.02 1009.90 1010.48 1010.94 1011.43 1011.70 1012.11 1012.75 1013.42
1012.42 1012.09 1011.82 1011.55 1011.31 1010.73 1010.29 1009.75 1009.30 1009.08 1008.83 1008.43 1008.09 1007.89 1007.51 1007.13 1006.95 1006.77 1006.53 1006.07 1005.67 1005.28 1005.37 1004.89 1004.63 1003.25 1003.31 1003.58 1002.63 1002.83 1004.01 1005.27 1006.82 1007.60 1008.02 1008.84 1009.69 1010.22 1010.91 1011.16 1011.50 1012.16 1012.85
1011.28 1010.98 1010.68 1010.40 1010.15 1009.57 1009.32 1008.75 1008.30 1008.09 1007.70 1007.22 1006.71 1006.37 1006.23 1005.92 1005.73 1005.70 1005.49 1005.14 1004.83 1004.42 1004.43 1004.21 1003.87 1002.52 1002.84 1002.83 1002.55 1002.53 1003.47 1004.54 1006.10 1007.13 1007.68 1008.29 1009.38 1010.28 1010.82 1010.85 1011.01 1011.57 1012.15
1010.27 1009.95 1009.59 1009.25 1008.90 1008.37 1007.91 1007.44 1007.09 1006.96 1006.46 1005.99 1005.43 1004.96 1004.66 1004.41 1004.32 1004.42 1004.23 1004.11 1003.71 1003.14 1003.10 1002.75 1002.25 1001.99 1001.76 1001.90 1002.44 1001.49 1001.70 1003.03 1004.68 1006.35 1006.63 1007.96 1009.06 1009.70 1011.03 1011.13 1010.95 1011.22 1011.89
Thickness
5560 5570 5577 5587 5596 5606 5615 5623 5632 5642 5654 5658 5656 5657 5660 5663 5665 5666 5670 5673 5675 5680 5681 5679 5680 5680 5679 5678 5680 5679 5681 5682 5680 5678 5676 5674 5675 5676 5674 5672 5670 5668 5666
5539 5548 5559 5571 5581 5590 5599 5609 5620 5631 5647 5652 5653 5651 5653 5657 5658 5664 5663 5667 5669 5674 5676 5675 5677 5678 5675 5674 5674 5674 5674 5675 5675 5674 5673 5671 5671 5671 5670 5669 5667 5665 5663
5520 5527 5537 5550 5562 5573 5585 5597 5609 5621 5642 5646 5647 5646 5644 5648 5649 5656 5659 5660 5664 5668 5671 5671 5670 5673 5672 5670 5671 5669 5668 5669 5670 5670 5669 5667 5668 5667 5666 5665 5663 5662 5660
5496 5507 5516 5528 5540 5553 5565 5580 5592 5605 5613 5635 5638 5636 5635 5638 5644 5649 5654 5654 5657 5661 5665 5666 5666 5669 5669 5668 5668 5665 5663 5664 5667 5666 5664 5664 5664 5662 5662 5661 5660 5658 5657
5472 5484 5493 5505 5518 5533 5547 5560 5574 5584 5598 5622 5625 5630 5628 5630 5638 5642 5648 5650 5651 5653 5658 5659 5661 5660 5664 5665 5664 5662 5660 5660 5661 5661 5660 5660 5659 5659 5658 5657 5655 5654 5653
5446 5460 5471 5482 5496 5511 5526 5539 5552 5569 5584 5609 5626 5625 5625 5629 5631 5636 5640 5644 5645 5646 5652 5653 5654 5653 5658 5660 5660 5659 5657 5657 5655 5655 5656 5655 5655 5654 5654 5653 5652 5650 5649
5418 5434 5447 5458 5472 5487 5501 5515 5531 5547 5575 5593 5608 5623 5623 5618 5619 5626 5632 5636 5637 5640 5644 5646 5648 5648 5648 5652 5654 5655 5653 5653 5652 5651 5650 5651 5651 5650 5650 5649 5648 5646 5644
5390 5406 5421 5433 5447 5465 5478 5494 5509 5524 5545 5559 5583 5608 5612 5613 5613 5614 5620 5625 5628 5632 5636 5640 5642 5644 5645 5646 5648 5649 5650 5650 5651 5648 5647 5647 5646 5646 5647 5645 5643 5641 5639
5362 5376 5393 5408 5422 5438 5454 5471 5486 5499 5517 5541 5554 5566 5607 5612 5616 5611 5614 5615 5621 5623 5628 5636 5636 5639 5641 5643 5642 5643 5646 5645 5645 5646 5643 5641 5642 5643 5643 5641 5639 5637 5634
5331 5347 5363 5382 5397 5413 5432 5446 5461 5477 5492 5515 5536 5558 5576 5599 5610 5603 5605 5611 5609 5615 5619 5625 5632 5633 5636 5638 5639 5639 5640 5640 5640 5640 5639 5638 5638 5639 5638 5636 5634 5632 5629
5301 5317 5336 5355 5371 5388 5409 5422 5436 5452 5469 5489 5509 5528 5555 5575 5602 5609 5613 5606 5600 5606 5611 5616 5625 5628 5630 5633 5634 5637 5637 5636 5636 5636 5637 5636 5634 5634 5634 5632 5630 5628 5627
5275 5290 5308 5327 5345 5364 5382 5401 5415 5431 5449 5468 5487 5512 5528 5545 5575 5591 5602 5607 5607 5600 5601 5609 5618 5623 5625 5626 5629 5632 5634 5632 5630 5632 5634 5634 5632 5630 5630 5629 5626 5625 5622
5256 5267 5282 5301 5320 5340 5358 5378 5396 5411 5426 5444 5469 5491 5507 5525 5547 5558 5587 5598 5598 5592 5592 5602 5608 5615 5618 5621 5623 5626 5628 5627 5626 5628 5628 5629 5628 5627 5625 5625 5622 5621 5618
5244 5250 5262 5278 5295 5315 5334 5354 5374 5389 5406 5424 5447 5474 5491 5510 5530 5548 5567 5584 5595 5588 5588 5601 5600 5606 5613 5615 5620 5624 5618 5625 5624 5623 5625 5626 5624 5624 5622 5621 5619 5618 5615
5232 5240 5247 5260 5275 5293 5312 5331 5351 5369 5386 5403 5427 5455 5475 5493 5516 5531 5550 5562 5591 5591 5595 5595 5597 5601 5604 5609 5613 5618 5617 5617 5619 5616 5621 5622 5619 5619 5619 5617 5615 5613 5611
5221 5228 5236 5245 5259 5274 5292 5310 5330 5349 5368 5384 5406 5432 5455 5476 5493 5516 5532 5541 5561 5595 5599 5602 5603 5604 5603 5604 5609 5610 5612 5616 5616 5617 5618 5615 5615 5615 5614 5615 5611 5610 5607
5212 5218 5226 5235 5246 5259 5273 5292 5310 5329 5349 5368 5386 5407 5434 5457 5481 5496 5508 5526 5548 5580 5595 5593 5597 5593 5593 5597 5600 5602 5602 5605 5609 5612 5611 5609 5611 5611 5610 5610 5608 5605 5603
5204 5211 5218 5227 5236 5247 5259 5276 5294 5311 5331 5349 5367 5388 5411 5431 5455 5475 5493 5516 5537 5550 5572 5586 5587 5583 5592 5594 5594 5595 5596 5601 5606 5606 5605 5604 5605 5606 5606 5604 5602 5601 5598
5197 5204 5211 5220 5229 5238 5249 5262 5278 5294 5313 5332 5350 5370 5392 5414 5443 5464 5480 5509 5517 5537 5555 5571 5584 5582 5584 5588 5586 5586 5591 5592 5598 5600 5599 5598 5599 5598 5599 5598 5598 5598 5595
5192 5199 5206 5214 5223 5232 5241 5251 5265 5280 5297 5317 5336 5354 5375 5396 5420 5445 5466 5479 5500 5524 5535 5540 5577 5579 5585 5584 5586 5583 5582 5584 5589 5591 5594 5594 5592 5592 5595 5594 5593 5593 5591
5189 5196 5203 5210 5218 5227 5236 5244 5255 5269 5284 5303 5322 5340 5359 5381 5402 5423 5444 5462 5479 5497 5514 5526 5565 5577 5576 5573 5578 5585 5586 5582 5581 5582 5584 5585 5586 5587 5588 5589 5589 5589 5586
5187 5193 5200 5207 5214 5223 5232 5242 5253 5263 5275 5290 5308 5326 5345 5365 5387 5408 5428 5445 5467 5483 5502 5515 5530 5571 5576 5576 5574 5576 5578 5574 5576 5578 5577 5579 5582 5583 5582 5585 5585 5585 5581
5189 5194 5200 5205 5212 5220 5229 5239 5248 5258 5268 5281 5294 5311 5332 5353 5372 5394 5416 5434 5454 5473 5488 5497 5509 5535 5558 5572 5571 5569 5573 5577 5579 5578 5573 5572 5572 5576 5576 5578 5578 5578 5577
5192 5198 5203 5207 5212 5220 5229 5239 5247 5254 5263 5274 5285 5297 5316 5336 5356 5377 5396 5417 5438 5458 5472 5487 5504 5526 5535 5542 5563 5573 5573 5571 5560 5562 5566 5571 5568 5572 5570 5573 5573 5572 5571
5197 5201 5206 5212 5218 5226 5233 5241 5248 5253 5260 5270 5281 5291 5305 5324 5344 5363 5387 5404 5425 5446 5461 5474 5491 5513 5521 5531 5545 5559 5556 5555 5554 5551 5555 5559 5558 5557 5558 5564 5567 5567 5566
5204 5209 5216 5221 5227 5234 5240 5246 5251 5254 5261 5269 5279 5289 5301 5318 5332 5348 5369 5389 5413 5440 5449 5467 5484 5500 5510 5523 5530 5551 5555 5553 5548 5536 5551 5547 5545 5547 5542 5550 5557 5559 5556